TimeCDT,TemperatureF,Dew PointF,Humidity,Sea Level PressureIn,VisibilityMPH,Wind Direction,Wind SpeedMPH,Gust SpeedMPH,PrecipitationIn,Events,Conditions,WindDirDegrees,DateUTC
12:15 AM,36.0,31.1,82,30.33,10.0,Calm,Calm,-,N/A,,Clear,0,2013-03-28 05:15:00
12:35 AM,33.6,31.8,93,30.34,10.0,Calm,Calm,-,N/A,,Scattered Clouds,0,2013-03-28 05:35:00
12:55 AM,33.1,32.0,96,30.34,10.0,Calm,Calm,-,N/A,,Scattered Clouds,0,2013-03-28 05:55:00
1:15 AM,33.1,32.0,96,30.34,10.0,Calm,Calm,-,N/A,,Clear,0,2013-03-28 06:15:00
1:35 AM,32.9,32.0,96,30.34,10.0,Calm,Calm,-,N/A,,Clear,0,2013-03-28 06:35:00
1:55 AM,34.0,32.0,92,30.34,10.0,Calm,Calm,-,N/A,,Clear,0,2013-03-28 06:55:00
2:15 AM,33.8,32.0,93,30.35,10.0,Calm,Calm,-,N/A,,Mostly Cloudy,0,2013-03-28 07:15:00
2:35 AM,34.3,32.2,92,30.35,10.0,Calm,Calm,-,N/A,,Mostly Cloudy,0,2013-03-28 07:35:00
2:55 AM,33.8,32.2,94,30.35,10.0,NNE,3.5,-,N/A,,Overcast,20,2013-03-28 07:55:00
3:15 AM,34.0,32.0,92,30.35,10.0,North,4.6,-,N/A,,Mostly Cloudy,10,2013-03-28 08:15:00
3:35 AM,34.3,32.2,92,30.34,10.0,NNE,4.6,-,N/A,,Mostly Cloudy,20,2013-03-28 08:35:00
3:55 AM,34.7,32.0,90,30.34,10.0,NNE,3.5,-,N/A,,Overcast,20,2013-03-28 08:55:00
4:15 AM,35.2,32.0,88,30.34,10.0,NNE,3.5,-,N/A,,Overcast,30,2013-03-28 09:15:00
4:35 AM,35.2,32.0,88,30.34,10.0,NNE,4.6,-,N/A,,Overcast,30,2013-03-28 09:35:00
4:55 AM,35.2,31.8,87,30.34,10.0,Calm,Calm,-,N/A,,Overcast,0,2013-03-28 09:55:00
5:15 AM,34.7,32.0,90,30.35,10.0,Calm,Calm,-,N/A,,Mostly Cloudy,0,2013-03-28 10:15:00
5:35 AM,35.1,32.0,89,30.35,10.0,Calm,Calm,-,N/A,,Mostly Cloudy,0,2013-03-28 10:35:00
5:55 AM,35.4,32.0,87,30.35,10.0,Calm,Calm,-,N/A,,Overcast,0,2013-03-28 10:55:00
6:15 AM,34.7,31.3,87,30.36,10.0,Calm,Calm,-,N/A,,Scattered Clouds,0,2013-03-28 11:15:00
6:35 AM,34.9,31.1,86,30.37,10.0,Calm,Calm,-,N/A,,Clear,0,2013-03-28 11:35:00
6:55 AM,32.7,31.1,94,30.38,10.0,Calm,Calm,-,N/A,,Clear,0,2013-03-28 11:55:00
7:15 AM,32.4,30.4,92,30.38,10.0,Calm,Calm,-,N/A,,Clear,0,2013-03-28 12:15:00
7:35 AM,34.0,31.1,89,30.39,10.0,NNE,3.5,-,N/A,,Scattered Clouds,30,2013-03-28 12:35:00
7:55 AM,34.9,31.6,88,30.39,10.0,Calm,Calm,-,N/A,,Mostly Cloudy,0,2013-03-28 12:55:00
8:15 AM,36.7,32.2,84,30.40,10.0,Calm,Calm,-,N/A,,Mostly Cloudy,0,2013-03-28 13:15:00
8:35 AM,38.3,31.1,75,30.39,10.0,Calm,Calm,-,N/A,,Mostly Cloudy,0,2013-03-28 13:35:00
8:55 AM,39.6,31.6,73,30.40,10.0,East,4.6,-,N/A,,Scattered Clouds,80,2013-03-28 13:55:00
9:15 AM,40.8,32.0,71,30.40,10.0,Calm,Calm,-,N/A,,Clear,0,2013-03-28 14:15:00
9:35 AM,42.8,32.7,68,30.40,10.0,Calm,Calm,-,N/A,,Clear,0,2013-03-28 14:35:00
9:55 AM,44.2,32.2,63,30.41,10.0,ENE,3.5,-,N/A,,Clear,70,2013-03-28 14:55:00
10:15 AM,45.5,32.4,60,30.40,10.0,ENE,4.6,-,N/A,,Scattered Clouds,70,2013-03-28 15:15:00
10:35 AM,46.2,30.9,55,30.41,10.0,Calm,Calm,-,N/A,,Clear,0,2013-03-28 15:35:00
10:55 AM,47.1,32.5,57,30.40,10.0,NE,4.6,-,N/A,,Clear,50,2013-03-28 15:55:00
11:15 AM,47.8,31.8,54,30.40,10.0,NE,5.8,-,N/A,,Scattered Clouds,40,2013-03-28 16:15:00
11:35 AM,47.8,30.6,51,30.40,10.0,NE,4.6,-,N/A,,Scattered Clouds,50,2013-03-28 16:35:00
11:55 AM,48.7,32.7,54,30.39,10.0,ENE,4.6,-,N/A,,Clear,60,2013-03-28 16:55:00
12:15 PM,50.0,32.5,51,30.39,10.0,Calm,Calm,-,N/A,,Mostly Cloudy,0,2013-03-28 17:15:00
12:35 PM,50.5,33.1,51,30.39,10.0,Calm,Calm,-,N/A,,Overcast,0,2013-03-28 17:35:00
12:55 PM,50.2,32.7,51,30.38,10.0,Calm,Calm,-,N/A,,Mostly Cloudy,0,2013-03-28 17:55:00
1:15 PM,51.8,34.0,51,30.37,10.0,NE,3.5,-,N/A,,Scattered Clouds,50,2013-03-28 18:15:00
1:35 PM,52.2,33.6,49,30.37,10.0,Calm,Calm,-,N/A,,Clear,0,2013-03-28 18:35:00
1:55 PM,53.1,34.0,48,30.35,10.0,Calm,Calm,-,N/A,,Clear,0,2013-03-28 18:55:00
2:15 PM,53.6,34.3,48,30.34,10.0,ENE,6.9,-,N/A,,Clear,70,2013-03-28 19:15:00
2:35 PM,54.7,34.2,46,30.33,10.0,NNE,6.9,-,N/A,,Clear,30,2013-03-28 19:35:00
2:55 PM,54.7,32.4,43,30.33,10.0,ESE,4.6,-,N/A,,Clear,120,2013-03-28 19:55:00
3:15 PM,55.4,32.5,42,30.32,10.0,North,3.5,-,N/A,,Clear,360,2013-03-28 20:15:00
3:35 PM,55.8,33.8,44,30.31,10.0,ENE,6.9,-,N/A,,Clear,60,2013-03-28 20:35:00
3:55 PM,55.9,32.7,41,30.30,10.0,NNW,3.5,-,N/A,,Clear,340,2013-03-28 20:55:00
4:15 PM,56.3,33.3,42,30.31,10.0,NW,3.5,-,N/A,,Clear,320,2013-03-28 21:15:00
4:35 PM,56.7,32.4,40,30.30,10.0,Calm,Calm,-,N/A,,Clear,0,2013-03-28 21:35:00
4:55 PM,57.2,34.2,42,30.30,10.0,ESE,3.5,-,N/A,,Clear,110,2013-03-28 21:55:00
5:15 PM,56.5,33.3,42,30.29,10.0,SE,4.6,-,N/A,,Clear,130,2013-03-28 22:15:00
5:35 PM,56.5,33.8,42,30.29,10.0,Calm,Calm,-,N/A,,Clear,0,2013-03-28 22:35:00
5:55 PM,56.3,34.0,43,30.30,10.0,ENE,3.5,-,N/A,,Clear,70,2013-03-28 22:55:00
6:15 PM,55.4,35.6,47,30.30,10.0,Calm,Calm,-,N/A,,Clear,0,2013-03-28 23:15:00
6:35 PM,54.5,34.2,46,30.30,10.0,Calm,Calm,-,N/A,,Clear,0,2013-03-28 23:35:00
6:55 PM,52.0,39.6,63,30.29,10.0,ENE,8.1,-,N/A,,Clear,70,2013-03-28 23:55:00
7:15 PM,50.4,37.2,61,30.30,10.0,Calm,Calm,-,N/A,,Clear,0,2013-03-29 00:15:00
7:35 PM,51.6,36.5,56,30.29,10.0,East,3.5,-,N/A,,Mostly Cloudy,100,2013-03-29 00:35:00
7:55 PM,49.6,38.8,66,30.29,10.0,East,3.5,-,N/A,,Overcast,100,2013-03-29 00:55:00
8:15 PM,49.8,36.9,61,30.29,10.0,ESE,4.6,-,N/A,,Overcast,110,2013-03-29 01:15:00
8:35 PM,49.1,39.0,68,30.29,10.0,East,3.5,-,N/A,,Overcast,90,2013-03-29 01:35:00
8:55 PM,49.1,38.1,66,30.30,10.0,East,3.5,-,N/A,,Overcast,90,2013-03-29 01:55:00
9:15 PM,48.4,39.9,73,30.30,10.0,East,4.6,-,N/A,,Overcast,90,2013-03-29 02:15:00
9:35 PM,48.0,39.7,73,30.31,10.0,Calm,Calm,-,N/A,,Overcast,0,2013-03-29 02:35:00
9:55 PM,48.4,39.4,71,30.31,10.0,Calm,Calm,-,N/A,,Overcast,0,2013-03-29 02:55:00
10:15 PM,47.1,42.4,84,30.31,10.0,Calm,Calm,-,N/A,,Overcast,0,2013-03-29 03:15:00
10:35 PM,48.6,38.7,69,30.31,10.0,Calm,Calm,-,N/A,,Overcast,0,2013-03-29 03:35:00
10:55 PM,46.9,41.2,80,30.31,10.0,Calm,Calm,-,N/A,,Overcast,0,2013-03-29 03:55:00
11:15 PM,47.3,41.0,79,30.31,10.0,Calm,Calm,-,N/A,,Overcast,0,2013-03-29 04:15:00
11:35 PM,46.8,41.5,82,30.31,10.0,Calm,Calm,-,N/A,,Light Drizzle,0,2013-03-29 04:35:00
11:55 PM,46.9,39.7,76,30.30,10.0,Calm,Calm,-,N/A,,Overcast,0,2013-03-29 04:55:00